Location: Newark
(25.1987°N, 100.3705°W)
Time: 03:20:09
(UTC+00:00)

Envisat - Pass Details

Date: 07 August 2021
Orbit: 764 x 766 km, 98.2° (Epoch: 26 September)

Event Time Altitude Azimuth Distance (km) Brightness Sun altitude
Rises 11:06:32 0° 27° (NNE) 3,230 7.1 -14.5°
Reaches altitude 10° 11:09:07 10° 38° (NE) 2,300 6.5 -14.0°
Maximum altitude 11:13:31 30° 98° (E) 1,357 4.9 -13.1°
Drops below altitude 10° 11:17:54 10° 158° (SSE) 2,291 5.4 -12.2°
Sets 11:20:27 0° 169° (S) 3,213 6.1 -11.6°
